| time (UTC) | temp F | wind direction | speed MPH | gust MPH | rain 1hr in | rain 24hr in | rain mn in | humidity % | barometer mb |
| 20260505200833 | 59 | 270 | 0.0 | 3.0 | 0.00 | 0.00 | 0.00 | 37 | 1007.3 |
| 20260505200333 | 59 | 269 | 1.0 | 4.0 | 0.00 | 0.00 | 0.00 | 38 | 1007.2 |
| 20260505195833 | 59 | 259 | 1.0 | 4.0 | 0.00 | 0.00 | 0.00 | 36 | 1007.3 |
| 20260505195333 | 60 | 235 | 1.0 | 4.0 | 0.00 | 0.00 | 0.00 | 37 | 1007.2 |
| 20260505194833 | 60 | 271 | 0.0 | 2.0 | 0.00 | 0.00 | 0.00 | 41 | 1007.1 |
| 20260505194333 | 60 | 187 | 0.0 | 2.0 | 0.00 | 0.00 | 0.00 | 38 | 1007.2 |
| 20260505193833 | 59 | 187 | 0.0 | 2.0 | 0.00 | 0.00 | 0.00 | 40 | 1007.3 |
| 20260505193333 | 59 | 257 | 0.0 | 2.0 | 0.00 | 0.00 | 0.00 | 39 | 1007.4 |
| 20260505192833 | 59 | 259 | 0.0 | 3.0 | 0.00 | 0.00 | 0.00 | 40 | 1007.5 |
| 20260505192333 | 59 | 265 | 0.0 | 4.0 | 0.00 | 0.00 | 0.00 | 40 | 1007.6 |
| 20260505191833 | 59 | 276 | 1.0 | 6.0 | 0.00 | 0.00 | 0.00 | 40 | 1007.6 |
| 20260505191333 | 59 | 285 | 0.0 | 6.0 | 0.00 | 0.00 | 0.00 | 42 | 1007.5 |
| 20260505190833 | 59 | 223 | 0.0 | 3.0 | 0.00 | 0.00 | 0.00 | 43 | 1007.5 |
| 20260505190333 | 58 | 198 | 1.0 | 3.0 | 0.00 | 0.00 | 0.00 | 42 | 1007.4 |
| 20260505185833 | 58 | 282 | 0.0 | 2.0 | 0.00 | 0.00 | 0.00 | 41 | 1007.6 |
| 20260505185333 | 59 | 281 | 1.0 | 6.0 | 0.00 | 0.00 | 0.00 | 43 | 1007.6 |
| 20260505184833 | 59 | 287 | 1.0 | 6.0 | 0.00 | 0.00 | 0.00 | 43 | 1007.6 |
| 20260505184333 | 59 | 294 | 0.0 | 5.0 | 0.00 | 0.00 | 0.00 | 42 | 1007.6 |
| 20260505183833 | 59 | 269 | 1.0 | 5.0 | 0.00 | 0.00 | 0.00 | 42 | 1007.6 |
| 20260505183333 | 59 | 196 | 0.0 | 4.0 | 0.00 | 0.00 | 0.00 | 40 | 1007.6 |
| 20260505182833 | 59 | 235 | 1.0 | 4.0 | 0.00 | 0.00 | 0.00 | 41 | 1007.6 |
| 20260505182333 | 59 | 244 | 1.0 | 4.0 | 0.00 | 0.00 | 0.00 | 42 | 1007.6 |
| 20260505181833 | 59 | 248 | 1.0 | 4.0 | 0.00 | 0.00 | 0.00 | 41 | 1007.4 |
| 20260505181333 | 59 | 273 | 0.0 | 4.0 | 0.00 | 0.00 | 0.00 | 43 | 1007.4 |
| 20260505180833 | 59 | 253 | 1.0 | 4.0 | 0.00 | 0.00 | 0.00 | 40 | 1007.3 |
| 20260505180333 | 59 | 264 | 0.0 | 3.0 | 0.00 | 0.00 | 0.00 | 41 | 1007.3 |
| 20260505175833 | 59 | 296 | 0.0 | 3.0 | 0.00 | 0.00 | 0.00 | 41 | 1007.1 |
| 20260505175333 | 59 | 282 | 1.0 | 3.0 | 0.00 | 0.00 | 0.00 | 44 | 1007.2 |
| 20260505174833 | 59 | 284 | 1.0 | 4.0 | 0.00 | 0.00 | 0.00 | 42 | 1007.1 |
| 20260505174333 | 59 | 285 | 1.0 | 4.0 | 0.00 | 0.00 | 0.00 | 41 | 1007.1 |
| 20260505173833 | 60 | 271 | 1.0 | 4.0 | 0.00 | 0.00 | 0.00 | 38 | 1007.2 |
| 20260505173333 | 60 | 278 | 1.0 | 4.0 | 0.00 | 0.00 | 0.00 | 40 | 1007.2 |
| 20260505172833 | 60 | 269 | 0.0 | 4.0 | 0.00 | 0.00 | 0.00 | 42 | 1007.1 |
| 20260505172333 | 60 | 220 | 1.0 | 4.0 | 0.00 | 0.00 | 0.00 | 39 | 1007.2 |
| 20260505171833 | 60 | 301 | 1.0 | 3.0 | 0.00 | 0.00 | 0.00 | 42 | 1007.1 |
| 20260505171333 | 59 | 285 | 1.0 | 3.0 | 0.00 | 0.00 | 0.00 | 42 | 1007.1 |
| 20260505170833 | 59 | 269 | 1.0 | 3.0 | 0.00 | 0.00 | 0.00 | 42 | 1007.1 |
| 20260505170333 | 59 | 291 | 1.0 | 4.0 | 0.00 | 0.00 | 0.00 | 41 | 1006.9 |
| 20260505165833 | 60 | 287 | 1.0 | 4.0 | 0.00 | 0.00 | 0.00 | 44 | 1007.0 |
| 20260505165333 | 60 | 249 | 1.0 | 3.0 | 0.00 | 0.00 | 0.00 | 46 | 1007.2 |
| 20260505164833 | 59 | 287 | 0.0 | 3.0 | 0.00 | 0.00 | 0.00 | 47 | 1007.3 |
| 20260505164333 | 59 | 230 | 1.0 | 3.0 | 0.00 | 0.00 | 0.00 | 44 | 1007.2 |
| 20260505163833 | 59 | 272 | 0.0 | 2.0 | 0.00 | 0.00 | 0.00 | 44 | 1007.2 |
| 20260505163333 | 58 | 242 | 0.0 | 3.0 | 0.00 | 0.00 | 0.00 | 45 | 1007.1 |
| 20260505162833 | 58 | 274 | 0.0 | 4.0 | 0.00 | 0.00 | 0.00 | 46 | 1007.0 |
| 20260505162333 | 58 | 265 | 1.0 | 4.0 | 0.00 | 0.00 | 0.00 | 45 | 1007.1 |
| 20260505161833 | 58 | 270 | 0.0 | 5.0 | 0.00 | 0.00 | 0.00 | 42 | 1007.0 |
| 20260505161333 | 58 | 290 | 1.0 | 5.0 | 0.00 | 0.00 | 0.00 | 45 | 1006.9 |
| 20260505160833 | 58 | 263 | 1.0 | 3.0 | 0.00 | 0.00 | 0.00 | 45 | 1007.2 |
| 20260505160333 | 58 | 274 | 1.0 | 3.0 | 0.00 | 0.00 | 0.00 | 45 | 1007.1 |
| 20260505153333 | 56 | 278 | 0.0 | 2.0 | 0.00 | 0.00 | 0.00 | 48 | 1006.6 |
| 20260505152833 | 55 | 303 | 0.0 | 4.0 | 0.00 | 0.00 | 0.00 | 48 | 1006.9 |
| 20260505152333 | 55 | 269 | 1.0 | 4.0 | 0.00 | 0.00 | 0.00 | 46 | 1006.9 |
| 20260505151833 | 55 | 286 | 1.0 | 3.0 | 0.00 | 0.00 | 0.00 | 48 | 1007.0 |
| 20260505151333 | 55 | 284 | 0.0 | 3.0 | 0.00 | 0.00 | 0.00 | 50 | 1007.0 |
| 20260505150833 | 55 | 260 | 0.0 | 3.0 | 0.00 | 0.00 | 0.00 | 49 | 1007.1 |
| 20260505150333 | 55 | 253 | 0.0 | 2.0 | 0.00 | 0.00 | 0.00 | 48 | 1006.8 |
| 20260505140333 | 52 | 0 | 0.0 | 0.0 | 0.00 | 0.00 | 0.00 | 50 | 1007.8 |
| 20260505124833 | 51 | 0 | 0.0 | 0.0 | 0.00 | 0.00 | 0.00 | 57 | 1006.8 |
| 20260505124333 | 50 | 0 | 0.0 | 0.0 | 0.00 | 0.00 | 0.00 | 56 | 1006.8 |
| 20260505123833 | 50 | 0 | 0.0 | 0.0 | 0.00 | 0.00 | 0.00 | 56 | 1007.0 |
| 20260505123333 | 50 | 0 | 0.0 | 0.0 | 0.00 | 0.00 | 0.00 | 55 | 1007.3 |
| 20260505122833 | 51 | 0 | 0.0 | 0.0 | 0.00 | 0.00 | 0.00 | 55 | 1007.0 |
| 20260505122333 | 51 | 0 | 0.0 | 0.0 | 0.00 | 0.00 | 0.00 | 54 | 1007.2 |
| 20260505121833 | 51 | 0 | 0.0 | 0.0 | 0.00 | 0.00 | 0.00 | 53 | 1007.0 |
| 20260505121333 | 51 | 0 | 0.0 | 0.0 | 0.00 | 0.00 | 0.00 | 53 | 1006.9 |
| 20260505120833 | 51 | 0 | 0.0 | 0.0 | 0.00 | 0.00 | 0.00 | 53 | 1007.1 |
| 20260505120333 | 51 | 182 | 0.0 | 1.0 | 0.00 | 0.00 | 0.00 | 53 | 1007.1 |
| 20260505115833 | 51 | 182 | 0.0 | 1.0 | 0.00 | 0.00 | 0.00 | 53 | 1006.5 |
| 20260505115333 | 51 | 0 | 0.0 | 0.0 | 0.00 | 0.00 | 0.00 | 54 | 1006.7 |
| 20260505114833 | 51 | 0 | 0.0 | 0.0 | 0.00 | 0.00 | 0.00 | 54 | 1006.5 |
| 20260505114333 | 51 | 0 | 0.0 | 0.0 | 0.00 | 0.00 | 0.00 | 53 | 1006.1 |
| 20260505113833 | 51 | 0 | 0.0 | 0.0 | 0.00 | 0.00 | 0.00 | 54 | 1006.1 |
| 20260505113333 | 51 | 0 | 0.0 | 0.0 | 0.00 | 0.00 | 0.00 | 53 | 1005.8 |
| 20260505112833 | 51 | 201 | 0.0 | 1.0 | 0.00 | 0.00 | 0.00 | 53 | 1005.6 |
| 20260505112333 | 51 | 201 | 0.0 | 2.0 | 0.00 | 0.00 | 0.00 | 53 | 1004.7 |
| 20260505111833 | 52 | 193 | 0.0 | 2.0 | 0.00 | 0.00 | 0.00 | 54 | 1005.2 |
| 20260505111333 | 52 | 198 | 0.0 | 1.0 | 0.00 | 0.00 | 0.00 | 55 | 1004.9 |
| 20260505110833 | 52 | 262 | 0.0 | 2.0 | 0.00 | 0.00 | 0.00 | 56 | 1005.3 |
| 20260505110333 | 52 | 262 | 0.0 | 2.0 | 0.00 | 0.00 | 0.00 | 56 | 1005.3 |
| 20260505101833 | 53 | 286 | 0.0 | 1.0 | 0.00 | 0.00 | 0.00 | 61 | 1004.0 |
| 20260505101333 | 54 | 216 | 0.0 | 1.0 | 0.00 | 0.00 | 0.00 | 61 | 1004.5 |
| 20260505100833 | 54 | 146 | 0.0 | 3.0 | 0.00 | 0.00 | 0.00 | 60 | 1004.4 |
| 20260505100333 | 54 | 128 | 0.0 | 3.0 | 0.00 | 0.00 | 0.00 | 59 | 1004.4 |
| 20260505095833 | 54 | 182 | 0.0 | 1.0 | 0.00 | 0.00 | 0.00 | 58 | 1004.5 |
| 20260505095333 | 55 | 194 | 0.0 | 1.0 | 0.00 | 0.00 | 0.00 | 58 | 1004.6 |
| 20260505094833 | 55 | 271 | 0.0 | 2.0 | 0.00 | 0.00 | 0.00 | 57 | 1004.7 |
| 20260505094333 | 55 | 271 | 0.0 | 2.0 | 0.00 | 0.00 | 0.00 | 56 | 1004.7 |
| 20260505093833 | 55 | 229 | 0.0 | 2.0 | 0.00 | 0.00 | 0.00 | 56 | 1004.3 |
| 20260505093333 | 55 | 223 | 0.0 | 2.0 | 0.00 | 0.00 | 0.00 | 55 | 1004.2 |
| 20260505092833 | 56 | 0 | 0.0 | 0.0 | 0.00 | 0.00 | 0.00 | 54 | 1004.2 |
| 20260505092333 | 56 | 0 | 0.0 | 0.0 | 0.00 | 0.00 | 0.00 | 54 | 1004.1 |
| 20260505091833 | 56 | 254 | 0.0 | 1.0 | 0.00 | 0.00 | 0.00 | 53 | 1003.9 |
| 20260505091333 | 56 | 254 | 0.0 | 2.0 | 0.00 | 0.00 | 0.00 | 53 | 1003.8 |
| 20260505090833 | 56 | 277 | 0.0 | 2.0 | 0.00 | 0.00 | 0.00 | 53 | 1003.9 |
| 20260505090333 | 56 | 196 | 0.0 | 3.0 | 0.00 | 0.00 | 0.00 | 53 | 1003.6 |
| 20260505085833 | 56 | 163 | 0.0 | 3.0 | 0.00 | 0.00 | 0.00 | 52 | 1003.5 |
| 20260505085333 | 57 | 229 | 0.0 | 2.0 | 0.00 | 0.00 | 0.00 | 53 | 1003.5 |
| 20260505084833 | 57 | 0 | 0.0 | 0.0 | 0.00 | 0.00 | 0.00 | 54 | 1003.3 |
| 20260505084333 | 57 | 232 | 0.0 | 2.0 | 0.00 | 0.00 | 0.00 | 53 | 1003.1 |
| 20260505083833 | 57 | 232 | 0.0 | 2.0 | 0.00 | 0.00 | 0.00 | 53 | 1002.8 |
| 20260505083333 | 58 | 284 | 0.0 | 1.0 | 0.00 | 0.00 | 0.00 | 52 | 1002.8 |
| 20260505082833 | 58 | 284 | 0.0 | 3.0 | 0.00 | 0.00 | 0.00 | 52 | 1002.3 |
| 20260505082333 | 58 | 290 | 0.0 | 3.0 | 0.00 | 0.00 | 0.00 | 51 | 1002.1 |
| 20260505081833 | 58 | 236 | 0.0 | 1.0 | 0.00 | 0.00 | 0.00 | 51 | 1002.2 |
| 20260505081333 | 59 | 254 | 0.0 | 3.0 | 0.00 | 0.00 | 0.00 | 51 | 1002.0 |
| 20260505080833 | 59 | 254 | 0.0 | 4.0 | 0.00 | 0.00 | 0.00 | 50 | 1001.9 |
| 20260505080333 | 59 | 277 | 0.0 | 4.0 | 0.00 | 0.00 | 0.00 | 50 | 1001.5 |
| 20260505075833 | 59 | 190 | 0.0 | 2.0 | 0.00 | 0.00 | 0.00 | 50 | 1001.4 |
| 20260505075333 | 59 | 297 | 0.0 | 2.0 | 0.00 | 0.00 | 0.00 | 50 | 1001.6 |
| 20260505074833 | 59 | 0 | 0.0 | 0.0 | 0.00 | 0.00 | 0.00 | 50 | 1001.6 |
| 20260505074333 | 59 | 0 | 0.0 | 0.0 | 0.00 | 0.00 | 0.00 | 50 | 1001.5 |
| 20260505073833 | 60 | 0 | 0.0 | 0.0 | 0.00 | 0.00 | 0.00 | 49 | 1001.5 |
| 20260505073333 | 60 | 0 | 0.0 | 0.0 | 0.00 | 0.00 | 0.00 | 50 | 1001.3 |
| 20260505072833 | 60 | 0 | 0.0 | 0.0 | 0.00 | 0.00 | 0.00 | 49 | 1001.1 |
| 20260505072333 | 60 | 0 | 0.0 | 0.0 | 0.00 | 0.00 | 0.00 | 49 | 1001.3 |
| 20260505071833 | 60 | 0 | 0.0 | 0.0 | 0.00 | 0.00 | 0.00 | 48 | 1001.1 |
| 20260505071333 | 60 | 286 | 0.0 | 1.0 | 0.00 | 0.00 | 0.00 | 47 | 1000.9 |
| 20260505070833 | 60 | 286 | 0.0 | 1.0 | 0.00 | 0.00 | 0.00 | 47 | 1000.9 |
| 20260505070333 | 60 | 276 | 0.0 | 1.0 | 0.00 | 0.00 | 0.00 | 47 | 1000.8 |
| 20260505065833 | 61 | 0 | 0.0 | 0.0 | 0.00 | 0.00 | 0.00 | 46 | 1000.7 |
| 20260505065333 | 61 | 0 | 0.0 | 0.0 | 0.00 | 0.00 | 0.00 | 46 | 1000.7 |
| 20260505064833 | 61 | 264 | 0.0 | 1.0 | 0.00 | 0.00 | 0.00 | 47 | 1000.7 |
| 20260505064332 | 61 | 264 | 0.0 | 1.0 | 0.00 | 0.00 | 0.00 | 47 | 1000.6 |
| 20260505063833 | 61 | 0 | 0.0 | 0.0 | 0.00 | 0.00 | 0.00 | 47 | 1000.6 |
| 20260505063333 | 61 | 296 | 0.0 | 1.0 | 0.00 | 0.00 | 0.00 | 45 | 1000.7 |
| 20260505062333 | 62 | 291 | 0.0 | 4.0 | 0.00 | 0.00 | 0.00 | 44 | 1000.6 |
| 20260505061833 | 62 | 0 | 0.0 | 0.0 | 0.00 | 0.00 | 0.00 | 44 | 1000.6 |
| 20260505061333 | 62 | 0 | 0.0 | 0.0 | 0.00 | 0.00 | 0.00 | 44 | 1000.5 |
| 20260505060833 | 62 | 0 | 0.0 | 0.0 | 0.00 | 0.00 | 0.00 | 44 | 1000.5 |
| 20260505060333 | 62 | 0 | 0.0 | 0.0 | 0.00 | 0.00 | 0.00 | 44 | 1000.5 |
| 20260505055833 | 62 | 0 | 0.0 | 0.0 | 0.00 | 0.00 | 0.00 | 44 | 1000.4 |
| 20260505055333 | 62 | 0 | 0.0 | 0.0 | 0.00 | 0.00 | 0.00 | 45 | 1000.6 |
| 20260505054833 | 62 | 0 | 0.0 | 0.0 | 0.00 | 0.00 | 0.00 | 46 | 1000.6 |
| 20260505054333 | 62 | 287 | 0.0 | 3.0 | 0.00 | 0.00 | 0.00 | 47 | 1000.5 |
| 20260505053833 | 62 | 287 | 0.0 | 3.0 | 0.00 | 0.00 | 0.00 | 47 | 1000.3 |
| 20260505053333 | 62 | 281 | 0.0 | 2.0 | 0.00 | 0.00 | 0.00 | 46 | 1000.2 |
| 20260505052833 | 62 | 0 | 0.0 | 0.0 | 0.00 | 0.00 | 0.00 | 48 | 1000.0 |
| 20260505052333 | 62 | 0 | 0.0 | 0.0 | 0.00 | 0.00 | 0.00 | 51 | 999.8 |
| 20260505051833 | 62 | 0 | 0.0 | 0.0 | 0.00 | 0.00 | 0.00 | 52 | 999.7 |
| 20260505051333 | 63 | 0 | 0.0 | 0.0 | 0.00 | 0.00 | 0.00 | 52 | 999.8 |
| 20260505050833 | 63 | 0 | 0.0 | 0.0 | 0.00 | 0.00 | 0.00 | 52 | 999.5 |
| 20260505050333 | 62 | 0 | 0.0 | 0.0 | 0.00 | 0.00 | 0.00 | 52 | 999.4 |
| 20260505041333 | 63 | 0 | 0.0 | 0.0 | 0.00 | 0.00 | 0.00 | 73 | 999.3 |
| 20260505040833 | 64 | 0 | 0.0 | 0.0 | 0.00 | 0.00 | 0.00 | 73 | 999.1 |
| 20260505040333 | 64 | 0 | 0.0 | 0.0 | 0.00 | 0.00 | 0.00 | 73 | 999.0 |
| 20260505035833 | 64 | 0 | 0.0 | 0.0 | 0.00 | 0.00 | 0.00 | 72 | 998.8 |
| 20260505035333 | 64 | 0 | 0.0 | 0.0 | 0.00 | 0.00 | 0.00 | 73 | 998.8 |
| 20260505034833 | 64 | 0 | 0.0 | 0.0 | 0.00 | 0.00 | 0.00 | 73 | 998.7 |
| 20260505034333 | 64 | 202 | 0.0 | 4.0 | 0.00 | 0.00 | 0.00 | 72 | 998.6 |
| 20260505033833 | 64 | 202 | 0.0 | 4.0 | 0.00 | 0.00 | 0.00 | 73 | 998.4 |
| 20260505033333 | 64 | 216 | 0.0 | 3.0 | 0.00 | 0.00 | 0.00 | 73 | 998.3 |
| 20260505032833 | 64 | 0 | 0.0 | 0.0 | 0.00 | 0.00 | 0.00 | 73 | 998.3 |
| 20260505032333 | 64 | 226 | 0.0 | 2.0 | 0.00 | 0.00 | 0.00 | 73 | 998.2 |
| 20260505031833 | 64 | 226 | 0.0 | 3.0 | 0.00 | 0.00 | 0.00 | 73 | 998.4 |
| 20260505031333 | 64 | 204 | 0.0 | 3.0 | 0.00 | 0.00 | 0.00 | 73 | 998.5 |
| 20260505030833 | 65 | 238 | 0.0 | 2.0 | 0.00 | 0.00 | 0.00 | 73 | 998.6 |
| 20260505030333 | 65 | 219 | 0.0 | 1.0 | 0.00 | 0.00 | 0.00 | 73 | 998.6 |
| 20260505025833 | 65 | 219 | 0.0 | 1.0 | 0.00 | 0.00 | 0.00 | 73 | 998.6 |
| 20260505025333 | 65 | 0 | 0.0 | 0.0 | 0.00 | 0.00 | 0.00 | 73 | 998.4 |
| 20260505024833 | 65 | 213 | 0.0 | 1.0 | 0.00 | 0.00 | 0.00 | 73 | 998.3 |
| 20260505024333 | 65 | 213 | 0.0 | 1.0 | 0.00 | 0.00 | 0.00 | 72 | 998.2 |
| 20260505023833 | 65 | 211 | 0.0 | 2.0 | 0.00 | 0.00 | 0.00 | 72 | 998.0 |
| 20260505023333 | 66 | 211 | 0.0 | 2.0 | 0.00 | 0.00 | 0.00 | 72 | 997.8 |
| 20260505022833 | 66 | 213 | 0.0 | 2.0 | 0.00 | 0.00 | 0.00 | 72 | 997.7 |
| 20260505022333 | 66 | 213 | 0.0 | 4.0 | 0.00 | 0.00 | 0.00 | 72 | 997.4 |
| 20260505021833 | 66 | 217 | 1.0 | 4.0 | 0.00 | 0.00 | 0.00 | 71 | 997.3 |
| 20260505021333 | 66 | 210 | 0.0 | 3.0 | 0.00 | 0.00 | 0.00 | 72 | 997.3 |
| 20260505020833 | 66 | 217 | 0.0 | 3.0 | 0.00 | 0.00 | 0.00 | 72 | 997.2 |
| 20260505020333 | 66 | 212 | 0.0 | 5.0 | 0.00 | 0.00 | 0.00 | 72 | 997.2 |
| 20260505015833 | 66 | 224 | 1.0 | 5.0 | 0.00 | 0.00 | 0.00 | 72 | 997.2 |
| 20260505015333 | 66 | 234 | 0.0 | 6.0 | 0.00 | 0.00 | 0.00 | 73 | 997.2 |
| 20260505014833 | 66 | 260 | 0.0 | 6.0 | 0.00 | 0.00 | 0.00 | 73 | 997.1 |
| 20260505014333 | 66 | 207 | 0.0 | 3.0 | 0.00 | 0.00 | 0.00 | 74 | 996.9 |
| 20260505013833 | 66 | 225 | 0.0 | 3.0 | 0.00 | 0.00 | 0.00 | 75 | 996.8 |
| 20260505013333 | 66 | 212 | 0.0 | 2.0 | 0.00 | 0.00 | 0.00 | 75 | 996.9 |
| 20260505012833 | 66 | 231 | 0.0 | 3.0 | 0.00 | 0.00 | 0.00 | 75 | 997.0 |
| 20260505012333 | 65 | 212 | 0.0 | 3.0 | 0.00 | 0.00 | 0.00 | 75 | 997.0 |
| 20260505011833 | 65 | 208 | 0.0 | 3.0 | 0.00 | 0.00 | 0.00 | 75 | 996.8 |
| 20260505011333 | 65 | 205 | 0.0 | 3.0 | 0.00 | 0.00 | 0.00 | 76 | 996.4 |
| 20260505010833 | 65 | 205 | 0.0 | 3.0 | 0.00 | 0.00 | 0.00 | 75 | 996.3 |
| 20260505010333 | 65 | 205 | 0.0 | 3.0 | 0.00 | 0.00 | 0.00 | 76 | 996.3 |
| 20260505005833 | 65 | 200 | 0.0 | 2.0 | 0.00 | 0.00 | 0.00 | 76 | 996.4 |
| 20260505005333 | 65 | 210 | 0.0 | 3.0 | 0.00 | 0.00 | 0.00 | 76 | 996.3 |
| 20260505004833 | 65 | 204 | 0.0 | 3.0 | 0.00 | 0.00 | 0.00 | 77 | 996.2 |
| 20260505004333 | 65 | 187 | 0.0 | 2.0 | 0.00 | 0.00 | 0.00 | 79 | 996.0 |
| 20260505003833 | 65 | 194 | 0.0 | 2.0 | 0.00 | 0.00 | 0.00 | 80 | 996.0 |
| 20260505003333 | 65 | 202 | 0.0 | 1.0 | 0.00 | 0.00 | 0.00 | 81 | 995.9 |
| 20260505002833 | 65 | 0 | 0.0 | 0.0 | 0.00 | 0.00 | 0.00 | 81 | 995.8 |
| 20260505002333 | 65 | 0 | 0.0 | 0.0 | 0.00 | 0.00 | 0.00 | 81 | 995.8 |
| 20260505001833 | 65 | 0 | 0.0 | 0.0 | 0.00 | 0.00 | 0.00 | 81 | 995.9 |
| 20260505001333 | 65 | 0 | 0.0 | 0.0 | 0.00 | 0.00 | 0.00 | 81 | 995.9 |
| 20260505000833 | 65 | 0 | 0.0 | 0.0 | 0.00 | 0.00 | 0.00 | 80 | 995.5 |
| 20260505000333 | 65 | 190 | 0.0 | 1.0 | 0.00 | 0.00 | 0.00 | 80 | 995.4 |
| 20260504235833 | 66 | 190 | 0.0 | 1.0 | 0.00 | 0.00 | 0.00 | 80 | 995.6 |
| 20260504235333 | 66 | 190 | 0.0 | 1.0 | 0.00 | 0.00 | 0.00 | 80 | 995.6 |
| 20260504234833 | 66 | 190 | 0.0 | 3.0 | 0.00 | 0.00 | 0.00 | 80 | 995.6 |
| 20260504234333 | 67 | 190 | 0.0 | 3.0 | 0.00 | 0.00 | 0.00 | 79 | 995.8 |
| 20260504233833 | 67 | 189 | 0.0 | 2.0 | 0.00 | 0.00 | 0.00 | 79 | 995.8 |
| 20260504233333 | 68 | 189 | 0.0 | 2.0 | 0.00 | 0.00 | 0.00 | 77 | 995.8 |
| 20260504232833 | 68 | 0 | 0.0 | 0.0 | 0.00 | 0.00 | 0.00 | 76 | 996.2 |
| 20260504232333 | 70 | 225 | 0.0 | 2.0 | 0.00 | 0.00 | 0.00 | 73 | 996.4 |
| 20260504231833 | 71 | 225 | 0.0 | 3.0 | 0.00 | 0.00 | 0.00 | 69 | 996.2 |
| 20260504231333 | 73 | 264 | 0.0 | 11.0 | 0.00 | 0.00 | 0.00 | 65 | 996.4 |
| 20260504230833 | 76 | 281 | 3.0 | 11.0 | 0.00 | 0.00 | 0.00 | 61 | 997.0 |
| 20260504230333 | 77 | 274 | 2.0 | 6.0 | 0.00 | 0.00 | 0.00 | 46 | 996.5 |
| 20260504225833 | 78 | 251 | 2.0 | 6.0 | 0.00 | 0.00 | 0.00 | 44 | 996.0 |
| 20260504225333 | 78 | 248 | 1.0 | 5.0 | 0.00 | 0.00 | 0.00 | 43 | 995.6 |
| 20260504224833 | 79 | 240 | 0.0 | 2.0 | 0.00 | 0.00 | 0.00 | 42 | 995.5 |
| 20260504224333 | 79 | 259 | 0.0 | 2.0 | 0.00 | 0.00 | 0.00 | 42 | 995.4 |
| 20260504223833 | 79 | 259 | 0.0 | 2.0 | 0.00 | 0.00 | 0.00 | 42 | 995.5 |
| 20260504223333 | 79 | 238 | 0.0 | 2.0 | 0.00 | 0.00 | 0.00 | 40 | 995.6 |
| 20260504222833 | 80 | 244 | 0.0 | 4.0 | 0.00 | 0.00 | 0.00 | 41 | 995.6 |
| 20260504222333 | 80 | 195 | 0.0 | 4.0 | 0.00 | 0.00 | 0.00 | 40 | 995.6 |
| 20260504221833 | 80 | 245 | 1.0 | 6.0 | 0.00 | 0.00 | 0.00 | 39 | 995.7 |
| 20260504221333 | 80 | 243 | 2.0 | 9.0 | 0.00 | 0.00 | 0.00 | 39 | 995.7 |
| 20260504220833 | 81 | 255 | 2.0 | 9.0 | 0.00 | 0.00 | 0.00 | 39 | 995.7 |
| 20260504220333 | 81 | 248 | 2.0 | 9.0 | 0.00 | 0.00 | 0.00 | 39 | 995.8 |
| 20260504215833 | 81 | 227 | 2.0 | 9.0 | 0.00 | 0.00 | 0.00 | 40 | 995.8 |
| 20260504215333 | 81 | 230 | 1.0 | 7.0 | 0.00 | 0.00 | 0.00 | 39 | 995.8 |
| 20260504214833 | 81 | 220 | 2.0 | 7.0 | 0.00 | 0.00 | 0.00 | 38 | 995.8 |
| 20260504214333 | 81 | 227 | 2.0 | 6.0 | 0.00 | 0.00 | 0.00 | 38 | 996.0 |
| 20260504213833 | 82 | 242 | 2.0 | 6.0 | 0.00 | 0.00 | 0.00 | 37 | 996.1 |
| 20260504213333 | 82 | 253 | 2.0 | 6.0 | 0.00 | 0.00 | 0.00 | 36 | 996.1 |
| 20260504212833 | 82 | 219 | 0.0 | 6.0 | 0.00 | 0.00 | 0.00 | 36 | 996.3 |
| 20260504212333 | 82 | 255 | 1.0 | 6.0 | 0.00 | 0.00 | 0.00 | 36 | 996.2 |
| 20260504211833 | 83 | 232 | 2.0 | 8.0 | 0.00 | 0.00 | 0.00 | 35 | 996.3 |
| 20260504211333 | 83 | 250 | 1.0 | 8.0 | 0.00 | 0.00 | 0.00 | 36 | 996.3 |
| 20260504210833 | 83 | 248 | 1.0 | 4.0 | 0.00 | 0.00 | 0.00 | 36 | 996.3 |
| 20260504210333 | 83 | 230 | 0.0 | 7.0 | 0.00 | 0.00 | 0.00 | 35 | 996.3 |
| 20260504205833 | 83 | 230 | 0.0 | 7.0 | 0.00 | 0.00 | 0.00 | 35 | 996.3 |
| 20260504205333 | 84 | 253 | 0.0 | 3.0 | 0.00 | 0.00 | 0.00 | 34 | 996.4 |
| 20260504204833 | 84 | 253 | 1.0 | 3.0 | 0.00 | 0.00 | 0.00 | 33 | 996.5 |
| 20260504204333 | 83 | 256 | 0.0 | 6.0 | 0.00 | 0.00 | 0.00 | 33 | 996.4 |
| 20260504203833 | 83 | 258 | 1.0 | 6.0 | 0.00 | 0.00 | 0.00 | 32 | 996.4 |
| 20260504203333 | 83 | 295 | 1.0 | 12.0 | 0.00 | 0.00 | 0.00 | 32 | 996.5 |
| 20260504202833 | 83 | 256 | 2.0 | 12.0 | 0.00 | 0.00 | 0.00 | 31 | 996.5 |
| 20260504202333 | 83 | 270 | 1.0 | 7.0 | 0.00 | 0.00 | 0.00 | 33 | 996.5 |
| 20260504201833 | 83 | 252 | 2.0 | 7.0 | 0.00 | 0.00 | 0.00 | 33 | 996.7 |
| 20260504201333 | 83 | 251 | 1.0 | 7.0 | 0.00 | 0.00 | 0.00 | 36 | 996.7 |